Location: Berg
(47.2344°N, 9.5296°E)
Time: 15:21:53
(UTC+00:00)

Cosmos 44 - Pass Details

Date: 18 May 2021
Orbit: 571 x 791 km, 65.1° (Epoch: 11 June)

Event Time Altitude Azimuth Distance (km) Brightness Sun altitude
Rises 20:59:39 0° 316° (NW) 3,289 8.5 -16.1°
Reaches altitude 10° 21:02:19 10° 307° (NW) 2,343 7.1 -16.4°
Maximum altitude 21:07:04 32° 246° (WSW) 1,284 4.7 -16.8°
Enters shadow 21:10:09 18° 194° (SSW) 1,780 5.0 -17.1°
